User: anonymous
Location: Nebula Knoll Observatory
(43.6666°N, 71.0000°W)
Time: 21:36:49
(UTC-04:00)
Language:

SeaSat 1 - Orbit

View from above orbital plane
View from above orbital plane
View from above satellite
View from above satellite

Ground track
Ground track

The orbit data is extracted from the following two-line orbital elements,

1 10967U 78064A   14294.13813652  .00000759  00000-0  26637-3 0  4192
2 10967 107.9937 073.8664 0001472 249.7753 197.8376 14.43115533906642
Epoch (UTC): 21 October 2014 03:18:54
Eccentricity: 0.0001472
inclination: 107.9937°
perigee height: 747 km
apogee height: 749 km
right ascension of ascending node: 73.8664°
argument of perigee: 249.7753°
revolutions per day: 14.43115533
mean anomaly at epoch: 197.8376°
orbit number at epoch: 90664

The dashed part of the orbit path shows where the satellite is in the earth's shadow,  

DLR